FW5682 Weather Reports


Display with metric or nautical units.
time (UTC)temp
F
wind
direction
speed
MPH
gust
MPH
rain 1hr
in
rain 24hr
in
rain mn
in
humidity
%
barometer
mb
20260505232936 42 42 3.0 6.0 0.00 0.00 0.00 86 1013.9
20260505231935 42 39 4.0 6.0 0.00 0.00 0.00 85 1014.0
20260505231652 43 48 3.0 7.0 0.00 0.00 0.00 85 1014.0
20260505230935 43 52 4.0 7.0 0.00 0.00 0.00 85 1014.0
20260505230436 43 52 3.0 10.0 0.00 0.00 0.00 85 1013.8
20260505230155 43 20 5.0 10.0 0.00 0.00 0.00 85 1014.0
20260505225434 43 25 5.0 9.0 0.00 0.00 0.00 85 1014.0
20260505224934 43 45 5.0 9.0 0.00 0.00 0.00 85 1014.0
20260505224435 43 4 6.0 9.0 0.00 0.00 0.00 85 1014.1
20260505224200 43 13 4.0 9.0 0.00 0.00 0.00 85 1014.1
20260505223435 43 1 5.0 10.0 0.00 0.00 0.00 84 1014.1
20260505222935 43 21 5.0 11.0 0.00 0.00 0.00 85 1014.0
20260505222658 44 17 6.0 11.0 0.00 0.00 0.00 85 1014.0
20260505222158 44 34 6.0 7.0 0.00 0.00 0.00 85 1014.1
20260505221434 44 14 5.0 7.0 0.00 0.00 0.00 84 1014.1
20260505220934 44 21 5.0 10.0 0.00 0.00 0.00 84 1014.0
20260505220433 44 27 5.0 11.0 0.00 0.00 0.00 84 1013.9
20260505215933 44 10 6.0 11.0 0.00 0.00 0.00 84 1013.9
20260505215434 44 3 6.0 14.0 0.00 0.00 0.00 84 1013.9
20260505215159 44 20 5.0 14.0 0.00 0.00 0.00 84 1013.9
20260505214433 44 0 5.0 11.0 0.00 0.00 0.00 83 1013.9
20260505213934 44 27 6.0 11.0 0.00 0.00 0.00 84 1013.9
20260505213659 44 20 6.0 13.0 0.00 0.00 0.00 84 1013.8
20260505212933 44 20 6.0 13.0 0.00 0.00 0.00 84 1013.8
20260505212654 44 107 6.0 12.0 0.00 0.00 0.00 84 1013.8
20260505211932 44 56 6.0 12.0 0.00 0.00 0.00 84 1013.8
20260505211432 44 6 7.0 14.0 0.00 0.00 0.00 84 1013.9
20260505210933 44 32 9.0 14.0 0.00 0.00 0.00 84 1013.9
20260505210432 44 18 8.0 13.0 0.00 0.00 0.00 84 1013.8
20260505210153 44 18 9.0 13.0 0.00 0.00 0.00 84 1013.9
20260505205652 45 44 7.0 12.0 0.00 0.00 0.00 85 1014.0
20260505204932 45 0 6.0 12.0 0.00 0.00 0.00 85 1013.9
20260505204432 45 30 6.0 12.0 0.00 0.00 0.00 84 1013.9
20260505203932 45 11 5.0 12.0 0.00 0.00 0.00 84 1013.9
20260505203431 45 6 5.0 16.0 0.00 0.00 0.00 84 1013.9
20260505202932 45 14 5.0 16.0 0.00 0.00 0.00 84 1013.8
20260505202432 45 0 7.0 14.0 0.00 0.00 0.00 84 1013.8
20260505201932 45 14 5.0 12.0 0.00 0.00 0.00 84 1013.8
20260505201431 45 55 5.0 11.0 0.00 0.00 0.00 84 1013.8
20260505201155 45 25 6.0 14.0 0.00 0.00 0.00 83 1013.8
20260505200430 45 35 7.0 14.0 0.00 0.00 0.00 83 1013.8
20260505195931 45 7 6.0 14.0 0.00 0.00 0.00 83 1013.8
20260505194930 45 11 6.0 13.0 0.00 0.00 0.00 83 1013.8
20260505194430 45 1 6.0 13.0 0.00 0.00 0.00 82 1013.7
20260505193930 45 8 5.0 13.0 0.00 0.00 0.00 82 1013.6
20260505193429 45 18 6.0 12.0 0.00 0.00 0.00 82 1013.7
20260505192929 46 48 7.0 16.0 0.00 0.00 0.00 81 1013.5
20260505192429 46 8 8.0 16.0 0.00 0.00 0.00 81 1013.5
20260505191930 46 45 5.0 13.0 0.00 0.00 0.00 80 1013.5
20260505191429 46 45 7.0 15.0 0.00 0.00 0.00 80 1013.5
20260505190928 46 21 9.0 16.0 0.00 0.00 0.00 80 1013.4
20260505190429 46 35 9.0 16.0 0.00 0.00 0.00 79 1013.5
20260505185930 46 357 6.0 14.0 0.00 0.00 0.00 80 1013.4
20260505185429 46 49 6.0 15.0 0.00 0.00 0.00 80 1013.4
20260505184929 46 25 9.0 15.0 0.00 0.00 0.00 80 1013.5
20260505184428 46 10 7.0 14.0 0.00 0.00 0.00 80 1013.5
20260505183930 46 11 8.0 13.0 0.00 0.00 0.00 80 1013.4
20260505183428 46 8 6.0 15.0 0.00 0.00 0.00 80 1013.3
20260505182428 47 30 6.0 17.0 0.00 0.00 0.00 80 1013.2
20260505181927 47 24 6.0 14.0 0.00 0.00 0.00 79 1013.2
20260505181429 47 0 5.0 18.0 0.00 0.00 0.00 79 1013.2
20260505180928 47 0 12.0 18.0 0.00 0.00 0.00 79 1013.1
20260505180428 47 23 6.0 16.0 0.00 0.00 0.00 79 1013.1
20260505180145 47 0 6.0 16.0 0.00 0.00 0.00 79 1013.1
20260505175428 47 8 9.0 16.0 0.00 0.00 0.00 80 1013.1
20260505174927 47 0 8.0 19.0 0.00 0.00 0.00 79 1013.2
20260505174649 47 0 9.0 19.0 0.00 0.00 0.00 79 1013.1
20260505173927 47 0 9.0 16.0 0.00 0.00 0.00 79 1013.1
20260505173427 48 8 11.0 16.0 0.00 0.00 0.00 80 1013.0
20260505173150 48 44 9.0 15.0 0.00 0.00 0.00 80 1013.1
20260505172427 48 39 9.0 18.0 0.00 0.00 0.00 80 1013.2
20260505171926 48 14 10.0 18.0 0.00 0.00 0.00 80 1013.1
20260505171427 48 61 8.0 16.0 0.00 0.00 0.00 80 1013.2
20260505170926 48 1 9.0 16.0 0.00 0.00 0.00 80 1013.1
20260505170438 48 353 6.0 15.0 0.00 0.00 0.00 79 1013.1
20260505165926 48 7 9.0 15.0 0.00 0.00 0.00 79 1013.1
20260505165425 49 16 8.0 15.0 0.00 0.00 0.00 79 1013.1
20260505165143 49 11 8.0 22.0 0.00 0.00 0.00 79 1013.0
20260505164423 49 25 9.0 22.0 0.00 0.00 0.00 79 1012.9
20260505163920 49 16 10.0 17.0 0.00 0.00 0.00 78 1012.9
20260505163420 50 8 9.0 20.0 0.00 0.00 0.00 77 1012.8
20260505162918 50 34 11.0 20.0 0.00 0.00 0.00 75 1012.8
20260505162418 50 0 10.0 16.0 0.00 0.00 0.00 74 1012.7
20260505162142 50 4 6.0 15.0 0.00 0.00 0.00 75 1012.6
20260505161419 50 41 8.0 15.0 0.00 0.00 0.00 75 1012.7
20260505160416 50 42 10.0 16.0 0.00 0.00 0.00 76 1012.7
20260505152912 51 14 8.0 14.0 0.00 0.00 0.00 78 1012.7
20260505152643 51 76 8.0 14.0 0.00 0.00 0.00 78 1012.7
20260505151911 51 34 7.0 12.0 0.00 0.00 0.00 77 1012.6
20260505151410 51 49 6.0 13.0 0.00 0.00 0.00 77 1012.6
20260505150910 51 32 8.0 13.0 0.00 0.00 0.00 78 1012.5
20260505150409 51 37 6.0 13.0 0.00 0.00 0.00 77 1012.5
20260505140409 51 6 8.0 15.0 0.00 0.00 0.00 80 1012.2
20260505130140 54 75 6.0 12.0 0.00 0.00 0.00 71 1012.0
20260505124907 54 68 5.0 10.0 0.00 0.00 0.00 68 1011.9
20260505124407 55 31 6.0 10.0 0.00 0.00 0.00 65 1011.9
20260505123906 56 354 3.0 10.0 0.00 0.00 0.00 71 1011.9
20260505123401 54 357 6.0 10.0 0.00 0.00 0.00 69 1011.9
20260505122901 54 11 6.0 10.0 0.00 0.00 0.00 67 1011.9
20260505122401 54 4 2.0 9.0 0.00 0.00 0.00 69 1012.0
20260505121901 54 347 4.0 9.0 0.00 0.00 0.00 68 1012.0
20260505121402 53 351 4.0 7.0 0.00 0.00 0.00 68 1012.0
20260505120859 53 338 4.0 7.0 0.00 0.00 0.00 71 1011.9
20260505120626 53 18 1.0 6.0 0.00 0.00 0.00 70 1012.0
20260505115857 53 39 4.0 9.0 0.00 0.00 0.00 69 1012.0
20260505115357 53 357 3.0 9.0 0.00 0.00 0.00 70 1012.1
20260505115118 53 16 4.0 9.0 0.00 0.00 0.00 71 1012.0
20260505114358 53 49 4.0 10.0 0.00 0.00 0.00 72 1012.0
20260505113855 53 0 6.0 10.0 0.00 0.00 0.00 71 1012.0
20260505113355 53 17 4.0 9.0 0.00 0.00 0.00 70 1012.1
20260505112855 53 20 6.0 10.0 0.00 0.00 0.00 69 1012.1
20260505112353 53 21 5.0 12.0 0.00 0.00 0.00 69 1012.0
20260505111855 53 28 6.0 12.0 0.00 0.00 0.00 69 1012.0
20260505111351 53 0 6.0 11.0 0.00 0.00 0.00 67 1012.0
20260505110852 53 68 5.0 11.0 0.00 0.00 0.00 68 1011.9
20260505110351 53 59 6.0 9.0 0.00 0.00 0.00 67 1011.9
20260505101840 53 336 3.0 11.0 0.00 0.00 0.00 66 1012.0
20260505101340 53 350 4.0 11.0 0.00 0.00 0.00 68 1011.9
20260505100838 53 340 7.0 11.0 0.00 0.00 0.00 67 1012.0
20260505095843 53 323 5.0 10.0 0.00 0.00 0.00 69 1012.0
20260505095337 52 348 5.0 10.0 0.00 0.00 0.00 68 1012.0
20260505094836 52 4 3.0 10.0 0.00 0.00 0.00 69 1012.0
20260505094337 52 347 4.0 12.0 0.00 0.00 0.00 70 1012.1
20260505093838 52 309 6.0 12.0 0.00 0.01 0.00 70 1012.1
20260505093337 52 336 4.0 13.0 0.00 0.01 0.00 71 1012.0
20260505092838 52 358 7.0 13.0 0.00 0.01 0.00 69 1012.0
20260505092557 53 341 5.0 12.0 0.00 0.01 0.00 70 1012.0
20260505091836 53 338 6.0 12.0 0.00 0.01 0.00 71 1012.0
20260505091337 53 327 7.0 13.0 0.00 0.01 0.00 69 1012.0
20260505090836 53 0 5.0 15.0 0.00 0.01 0.00 69 1012.0
20260505090338 53 353 8.0 15.0 0.00 0.01 0.00 68 1012.0
20260505085837 54 316 4.0 12.0 0.00 0.01 0.00 68 1012.0
20260505085334 53 8 7.0 13.0 0.00 0.01 0.00 70 1012.0
20260505084835 52 334 6.0 13.0 0.00 0.01 0.00 70 1012.0
20260505084341 52 3 7.0 13.0 0.00 0.01 0.00 70 1012.0
20260505083839 52 347 6.0 10.0 0.00 0.01 0.00 71 1011.9
20260505083342 52 321 3.0 10.0 0.00 0.01 0.00 72 1012.0
20260505082836 52 309 6.0 11.0 0.00 0.01 0.00 72 1012.0
20260505082335 52 340 5.0 11.0 0.00 0.01 0.00 70 1012.0
20260505081833 52 340 4.0 11.0 0.00 0.01 0.00 67 1012.0
20260505081332 53 292 5.0 10.0 0.00 0.01 0.00 67 1012.0
20260505080830 53 350 5.0 13.0 0.00 0.01 0.00 68 1012.0
20260505080553 53 0 4.0 13.0 0.00 0.01 0.00 68 1012.0
20260505075826 53 326 5.0 14.0 0.00 0.01 0.00 66 1012.0
20260505075327 53 353 7.0 15.0 0.00 0.01 0.00 67 1012.0
20260505074825 53 321 7.0 15.0 0.00 0.01 0.00 68 1011.9
20260505074322 53 0 6.0 14.0 0.00 0.01 0.00 68 1011.9
20260505074048 52 7 4.0 9.0 0.00 0.01 0.00 70 1011.8
20260505073322 52 306 4.0 11.0 0.00 0.01 0.00 72 1011.9
20260505072821 52 312 6.0 11.0 0.00 0.01 0.00 73 1011.9
20260505072318 52 292 4.0 9.0 0.00 0.01 0.00 74 1012.0
20260505071817 51 317 2.0 9.0 0.00 0.01 0.00 75 1012.0
20260505071317 50 329 5.0 11.0 0.00 0.01 0.00 75 1012.1
20260505070816 50 344 5.0 11.0 0.00 0.01 0.00 75 1012.1
20260505070315 50 353 4.0 9.0 0.00 0.01 0.00 75 1012.1
20260505065815 50 310 5.0 11.0 0.00 0.01 0.00 75 1012.3
20260505065313 50 345 5.0 11.0 0.00 0.01 0.00 75 1012.2
20260505064812 50 316 4.0 9.0 0.00 0.01 0.00 76 1012.3
20260505064532 50 319 3.0 9.0 0.00 0.01 0.00 76 1012.3
20260505063813 49 324 4.0 7.0 0.00 0.01 0.00 77 1012.3
20260505063312 49 334 3.0 6.0 0.00 0.01 0.00 77 1012.3
20260505062811 48 336 3.0 7.0 0.00 0.01 0.00 78 1012.2
20260505062311 48 337 4.0 7.0 0.00 0.01 0.00 79 1012.2
20260505061811 48 312 5.0 7.0 0.00 0.01 0.00 80 1012.1
20260505061311 47 340 3.0 9.0 0.00 0.01 0.00 80 1012.1
20260505060811 47 323 5.0 10.0 0.00 0.01 0.00 80 1012.1
20260505060311 46 316 5.0 10.0 0.00 0.01 0.00 81 1012.1
20260505055811 46 313 5.0 11.0 0.00 0.01 0.00 82 1012.2
20260505055309 45 309 6.0 11.0 0.00 0.01 0.00 83 1012.1
20260505054811 45 338 5.0 11.0 0.00 0.01 0.00 85 1012.1
20260505054310 44 296 5.0 10.0 0.00 0.01 0.00 86 1012.1
20260505053811 43 314 5.0 9.0 0.00 0.01 0.00 86 1012.0
20260505053310 43 320 4.0 7.0 0.00 0.01 0.00 86 1011.9
20260505052810 43 348 4.0 7.0 0.00 0.01 0.00 86 1011.9
20260505052310 43 327 4.0 7.0 0.00 0.01 0.00 86 1011.9
20260505051809 42 336 4.0 7.0 0.00 0.01 0.00 86 1011.9
20260505051309 43 331 4.0 7.0 0.00 0.01 0.00 86 1012.0
20260505051030 43 330 4.0 7.0 0.00 0.01 0.00 86 1011.9
20260505050322 43 334 4.0 7.0 0.00 0.01 0.00 86 1011.8
20260505041533 43 319 4.0 9.0 0.00 0.01 0.00 86 1011.6
20260505040807 43 319 4.0 10.0 0.00 0.01 0.00 86 1011.6
20260505040308 43 333 6.0 10.0 0.00 0.01 0.00 86 1011.5
20260505040031 43 324 5.0 9.0 0.00 0.01 0.00 86 1011.5
20260505035308 43 320 5.0 9.0 0.00 0.01 0.00 86 1011.5
20260505034807 43 316 3.0 10.0 0.00 0.01 0.00 86 1011.5
20260505034535 43 305 3.0 10.0 0.00 0.01 0.00 86 1011.5
20260505033807 43 292 4.0 10.0 0.00 0.01 0.00 86 1011.5
20260505033308 43 320 4.0 6.0 0.00 0.01 0.00 86 1011.5
20260505032807 43 316 4.0 6.0 0.00 0.01 0.00 86 1011.6
20260505032307 43 313 3.0 6.0 0.00 0.01 0.00 86 1011.6
20260505031807 43 310 4.0 6.0 0.00 0.01 0.00 86 1011.6
20260505031306 43 302 3.0 5.0 0.00 0.01 0.00 86 1011.6
20260505030806 43 305 3.0 5.0 0.00 0.01 0.00 86 1011.6
20260505025806 43 303 4.0 6.0 0.00 0.01 0.00 86 1011.7
20260505025307 43 306 4.0 6.0 0.00 0.01 0.00 86 1011.8
20260505024806 43 309 3.0 5.0 0.00 0.01 0.00 85 1011.7
20260505024306 43 305 4.0 6.0 0.00 0.01 0.00 85 1011.8
20260505023807 43 303 3.0 6.0 0.00 0.01 0.00 85 1011.7
20260505023306 43 302 2.0 5.0 0.00 0.01 0.00 84 1011.8
20260505022806 44 302 3.0 5.0 0.00 0.01 0.00 84 1011.8
20260505022305 44 302 2.0 4.0 0.00 0.01 0.00 84 1011.8
20260505021808 44 302 2.0 4.0 0.00 0.01 0.00 83 1011.8
20260505021306 44 302 3.0 6.0 0.00 0.01 0.00 83 1011.9
20260505020805 44 302 4.0 7.0 0.00 0.01 0.00 83 1011.9
20260505020306 44 298 4.0 9.0 0.00 0.01 0.00 83 1011.9
20260505015805 44 309 5.0 11.0 0.00 0.01 0.00 83 1011.9
20260505015304 44 282 5.0 11.0 0.00 0.01 0.00 83 1011.9
20260505014806 44 309 6.0 11.0 0.00 0.01 0.00 83 1012.1
20260505014304 44 298 4.0 9.0 0.00 0.01 0.00 83 1012.1
20260505013804 44 293 4.0 7.0 0.00 0.01 0.00 83 1012.2
20260505013522 44 292 5.0 7.0 0.00 0.01 0.00 83 1012.2
20260505012804 44 289 4.0 9.0 0.00 0.01 0.00 83 1012.2
20260505012528 44 286 4.0 9.0 0.00 0.02 0.00 83 1012.2
20260505011805 44 292 4.0 9.0 0.00 0.02 0.00 83 1012.1
20260505011306 44 298 4.0 11.0 0.00 0.02 0.00 83 1012.2
20260505010804 44 306 5.0 11.0 0.00 0.02 0.00 84 1012.2
20260505005803 44 306 3.0 6.0 0.00 0.02 0.00 83 1012.2
20260505005524 44 309 1.0 4.0 0.00 0.02 0.00 83 1012.2
20260505004805 44 309 2.0 4.0 0.00 0.02 0.00 82 1012.4
20260505004303 44 310 3.0 4.0 0.00 0.02 0.00 82 1012.3
20260505003802 45 310 1.0 3.0 0.00 0.02 0.00 82 1012.3
20260505003302 45 310 1.0 5.0 0.00 0.02 0.00 82 1012.4
20260505002802 45 310 2.0 5.0 0.00 0.02 0.00 81 1012.4
20260505002303 45 300 3.0 5.0 0.00 0.02 0.00 81 1012.4
20260505001802 45 296 2.0 5.0 0.00 0.02 0.00 81 1012.4
20260505001527 46 296 2.0 5.0 0.00 0.02 0.00 81 1012.4
20260505000800 46 295 2.0 6.0 0.00 0.02 0.00 81 1012.5
20260505000301 46 313 3.0 6.0 0.00 0.02 0.00 81 1012.4
20260504235801 46 316 3.0 6.0 0.00 0.02 0.00 81 1012.4
20260504235300 46 314 3.0 4.0 0.00 0.02 0.00 82 1012.5
20260504234801 46 316 2.0 5.0 0.00 0.02 0.00 82 1012.4
20260504234528 46 314 2.0 5.0 0.00 0.02 0.00 82 1012.5
20260504233758 47 316 3.0 6.0 0.00 0.02 0.00 81 1012.5
20260504233515 47 317 3.0 6.0 0.00 0.02 0.00 81 1012.5
20260504233021 47 314 3.0 6.0 0.00 0.02 0.00 81 1012.4